Tracking 29747 objects as of 9-Oct-2024
HD Live streaming from Space Station
objects crossing your sky now

SL-14 DEB

Track SL-14 DEB now!
10-day predictions


NORAD ID: 45305
Int'l Code: 1991-056AT
Perigee: 1,123.7 km
Apogee: 1,189.9 km
Inclination: 82.6 °
Period: 108.3 minutes
Semi major axis: 7527 km
RCS: Unknown
Launch date: August 15, 1991
Source: Commonwealth of Independent States (former USSR) (CIS)
Launch site: PLESETSK MISSILE AND SPACE COMPLEX (PKMTR)

Note: This is SATELLITE DEBRIS
Your satellite tracking list
Your tracking list is empty




NASA's NSSDC Master Catalog

Two Line Element Set (TLE):
1 45305U 91056AT  24283.19286509  .00009284  00000-0  19968-1 0  9994
2 45305  82.5645 199.7890 0043929  35.2964 325.1060 13.29230894223485
Source of the keplerian elements: AFSPC